Flag for Gibraltar Weather past 2 weeks in Gibraltar, Gibraltar

Now
64 °F

Sunny.


Feels Like: 64 °F
Forecast: 60 / 71 °F
Wind: 7 mph from West

Location: Gibraltar Airport

Current Time: Mar 31, 2015 at 10:25:09 AM

Latest Report: Mar 31, 2015 at 9:50 AM


Visibility: 10 mi

Pressure: 30.27 "Hg

Humidity: 64%

Dew point: 52 °F

Location of GibraltarLocation

Historic Weather in Gibraltar — Graph

°F

Gibraltar temperature yesterday

Maximum temperature yesterday: 73 °F (at 4:50 PM)
Minimum temperature yesterday: 63 °F (at 7:50 AM)
Average temperature yesterday: 67 °F

Past Weeks' High & Low Weather Summary

 TemperatureHumidityPressure
High77 °F (Mar 29, 2:50 PM)100% (Mar 21, 5:50 AM)30.33 "Hg (Mar 21, 5:50 AM)
Low50 °F (Mar 18, 12:50 AM)24% (Mar 25, 4:50 PM)29.62 "Hg (Mar 24, 12:50 AM)
Average59 °F74%29.96 "Hg
* Reported Mar 16 7:50 AM — Mar 31 8:50 AM, Gibraltar, Weather by CustomWeather, © 2015

Note: Actual official high and low records may vary slightly from our data, if they occured in-between our weather recording intervals... More about our weather records

Advertising

Gibraltar weather history for previous 24 hours

 ConditionsComfort  
Time TempWeatherWind HumidityBarometerVisibility
8:50 AM
Tue, Mar 31
63 °FClear.8 mph64%30.27 "Hg10 mi
7:50 AM64 °FClear.10 mph60%30.24 "Hg10 mi
6:50 AM66 °FPassing clouds.12 mph52%30.24 "HgN/A
5:50 AM64 °FPassing clouds.13 mph56%30.24 "HgN/A
4:50 AM64 °FClear.17 mph52%30.24 "HgN/A
3:50 AM64 °FClear.15 mph56%30.27 "HgN/A
2:50 AM64 °FClear.15 mph56%30.27 "HgN/A
1:50 AM64 °FClear.15 mph60%30.27 "HgN/A
12:50 AM66 °FClear.15 mph60%30.30 "HgN/A
11:50 PM
Mon, Mar 30
66 °FClear.15 mph68%30.30 "HgN/A
10:50 PM68 °FClear.12 mph64%30.27 "Hg10 mi
9:50 PM68 °FClear.13 mph69%30.27 "Hg10 mi
8:50 PM68 °FSunny.15 mph69%30.27 "Hg10 mi
6:50 PM70 °FSunny.14 mph64%30.27 "Hg10 mi
5:50 PM72 °FSunny.12 mph61%30.27 "Hg10 mi
4:50 PM73 °FScattered clouds.13 mph57%30.27 "HgN/A
3:50 PM72 °FScattered clouds.12 mph57%30.27 "HgN/A
2:50 PM68 °FPassing clouds.15 mph69%30.30 "HgN/A
1:50 PM70 °FPassing clouds.12 mph60%30.30 "HgN/A
12:50 PM68 °FPassing clouds.13 mph64%30.33 "HgN/A
11:50 AM66 °FSunny.12 mph64%30.33 "Hg10 mi
10:50 AM64 °FScattered clouds.12 mph68%30.30 "HgN/A
Weather by CustomWeather, © 2015

See weather overviewHow to use our weather pages